User: anonymous   Login
Location: Unspecified
(0.0000°N, 0.0000°E)
Time: 20:20:04
(UTC+00:00)
Language:

SWISSCUBE - Orbit

View from above orbital plane
View from above orbital plane
View from above satellite
View from above satellite

Ground track
Ground track

The orbit data is extracted from the following two-line orbital elements,

1 35932U 09051B   15062.28851461  .00001529  00000-0  36468-3 0  9993
2 35932 098.3953 180.4157 0006832 309.4943 050.5649 14.55154153288560
Epoch (UTC): 03 March 2015 06:55:27
Eccentricity: 0.0006832
inclination: 98.3953°
perigee height: 704 km
apogee height: 714 km
right ascension of ascending node: 180.4157°
argument of perigee: 309.4943°
revolutions per day: 14.55154153
mean anomaly at epoch: 50.5649°
orbit number at epoch: 28856

The dashed part of the orbit path shows where the satellite is in the earth's shadow,  

DLR